AP586 Weather Reports


time (UTC)temp
F
wind
direction
speed
knots
gust
knots
rain 1hr
in
rain 24hr
in
rain mn
in
humidity
%
barometer
mb
20260507074512 54 290 2.6 8.7 0.01 0.09 0.01 86 1004.1
20260507073008 54 259 0.9 7.0 0.00 0.08 0.00 86 1003.8
20260507071506 54 285 1.7 7.0 0.00 0.08 0.00 86 1003.2
20260507070009 55 294 1.7 10.4 0.00 0.08 0.00 87 1003.3
20260507064504 55 271 0.9 5.2 0.00 0.08 0.00 88 1003.4
20260507063001 56 258 2.6 5.2 0.00 0.08 0.00 89 1003.4
20260507061602 56 288 1.7 4.3 0.00 0.08 0.00 89 1003.2
20260507060103 56 255 0.0 7.0 0.00 0.08 0.00 90 1003.4
20260507054613 57 261 1.7 5.2 0.00 0.08 0.00 91 1003.6
20260507053105 57 283 0.9 7.0 0.00 0.08 0.00 91 1003.7
20260507051557 58 300 0.0 2.6 0.00 0.08 0.00 91 1003.5
20260507050054 59 285 1.7 3.5 0.00 0.08 0.00 92 1003.4
20260507044554 59 245 0.9 3.5 0.00 0.08 0.00 92 1003.6
20260507043044 59 241 0.0 5.2 0.00 0.08 0.00 92 1003.3
20260507041547 59 284 2.6 8.7 0.00 0.08 0.00 92 1003.4
20260507040041 59 263 0.9 7.0 0.00 0.08 0.08 92 1003.6
20260507034538 58 189 3.5 6.1 0.00 0.08 0.08 92 1003.7
20260507033037 58 217 2.6 7.0 0.00 0.08 0.08 92 1003.5
20260507031539 58 234 3.5 8.7 0.00 0.08 0.08 92 1003.2
20260507030033 58 194 3.5 12.2 0.00 0.08 0.08 92 1003.2
20260507024537 58 187 5.2 7.8 0.00 0.08 0.08 92 1003.1
20260507023033 58 247 4.3 9.6 0.00 0.08 0.08 92 1003.0
20260507021536 58 169 4.3 13.0 0.00 0.08 0.08 92 1003.0
20260507020031 57 215 3.5 10.4 0.00 0.08 0.08 92 1003.1
20260507014532 57 240 2.6 9.6 0.00 0.08 0.08 92 1003.2
20260507013031 57 194 3.5 8.7 0.00 0.08 0.08 92 1003.5
20260507011531 57 203 5.2 11.3 0.00 0.08 0.08 92 1003.6
20260507010037 57 175 3.5 10.4 0.00 0.08 0.08 92 1003.7
20260507004528 57 190 4.3 9.6 0.00 0.08 0.08 92 1003.6
20260507003026 57 190 2.6 11.3 0.01 0.08 0.08 92 1003.6
20260507001528 57 215 6.1 16.5 0.01 0.08 0.08 92 1003.5
20260507000026 57 205 3.5 14.8 0.01 0.08 0.08 91 1003.4
20260506234521 57 196 4.3 15.6 0.01 0.08 0.08 91 1003.3
20260506233019 57 144 5.2 12.2 0.00 0.07 0.07 91 1003.2
20260506231519 58 193 6.1 13.0 0.00 0.07 0.07 91 1003.3
20260506230013 58 200 3.5 11.3 0.01 0.07 0.07 91 1003.4
20260506224514 58 192 4.3 10.4 0.01 0.07 0.07 91 1003.4
20260506223008 59 189 5.2 11.3 0.02 0.07 0.07 91 1003.6
20260506221506 59 157 6.1 13.0 0.04 0.07 0.07 90 1003.7
20260506220004 59 160 3.5 12.2 0.04 0.06 0.06 90 1003.8
20260506214603 60 155 4.3 13.0 0.04 0.06 0.06 90 1004.0
20260506213102 60 158 4.3 18.2 0.04 0.05 0.05 89 1004.1
20260506211558 60 168 9.6 21.7 0.02 0.03 0.03 88 1004.0
20260506210057 61 159 3.5 10.4 0.02 0.02 0.02 87 1004.1
20260506204556 61 198 6.1 13.0 0.02 0.02 0.02 85 1004.2
20260506203054 62 121 4.3 17.4 0.01 0.01 0.01 83 1004.2
20260506201553 62 325 5.2 20.0 0.01 0.01 0.01 82 1004.0
20260506200052 64 163 6.1 13.9 0.00 0.00 0.00 78 1004.1
20260506194551 64 215 4.3 12.2 0.00 0.00 0.00 76 1004.3
20260506193054 65 212 7.0 19.1 0.00 0.00 0.00 74 1004.6
20260506191649 66 217 7.8 18.2 0.00 0.00 0.00 70 1004.5
20260506190051 67 217 5.2 15.6 0.00 0.00 0.00 66 1004.3
20260506184548 68 242 8.7 18.2 0.00 0.00 0.00 64 1004.4
20260506183046 68 165 3.5 15.6 0.00 0.00 0.00 64 1004.5
20260506181600 69 174 7.0 20.9 0.00 0.00 0.00 62 1004.7
20260506180043 70 219 8.7 19.1 0.00 0.00 0.00 60 1004.9
20260506174542 70 194 8.7 19.1 0.00 0.00 0.00 61 1005.1
20260506173105 69 165 6.1 25.2 0.00 0.00 0.00 63 1005.2
20260506171543 70 152 9.6 20.0 0.00 0.00 0.00 61 1005.1
20260506170051 68 130 7.8 21.7 0.00 0.00 0.00 64 1005.2
20260506164538 69 171 5.2 18.2 0.00 0.00 0.00 63 1005.5
20260506163045 69 153 9.6 20.0 0.00 0.00 0.00 62 1005.6
20260506161534 69 156 7.8 19.1 0.00 0.00 0.00 63 1006.0
20260506160034 69 96 9.6 23.5 0.00 0.00 0.00 63 1006.2
20260506154530 70 194 8.7 17.4 0.00 0.00 0.00 61 1006.4
20260506153028 70 173 7.8 17.4 0.00 0.00 0.00 60 1006.5
20260506151527 70 242 9.6 17.4 0.00 0.00 0.00 61 1006.6
20260506150025 70 171 6.1 19.1 0.00 0.00 0.00 62 1006.7
20260506144524 69 237 7.0 16.5 0.00 0.00 0.00 63 1006.7
20260506143026 69 171 5.2 13.0 0.00 0.00 0.00 65 1006.5
20260506141517 68 187 6.1 20.0 0.00 0.00 0.00 66 1006.5
20260506140019 67 180 9.6 20.0 0.00 0.00 0.00 67 1006.6
20260506134511 66 139 4.3 13.9 0.00 0.00 0.00 71 1006.6
20260506133008 65 115 6.1 20.0 0.00 0.00 0.00 71 1007.2
20260506131509 65 198 7.0 24.3 0.00 0.00 0.00 72 1007.1
20260506130004 64 178 7.0 17.4 0.00 0.00 0.00 75 1007.2
20260506124503 63 187 5.2 13.0 0.00 0.00 0.00 77 1007.3
20260506123058 62 162 9.6 18.2 0.00 0.00 0.00 80 1007.4
20260506121555 61 179 6.1 13.9 0.00 0.00 0.00 81 1007.3
20260506120055 60 185 6.1 17.4 0.00 0.00 0.00 82 1007.7
20260506114603 60 192 5.2 10.4 0.00 0.00 0.00 82 1007.8
20260506113051 60 259 7.0 12.2 0.00 0.00 0.00 83 1008.0
20260506111549 59 187 4.3 13.0 0.00 0.00 0.00 83 1007.8
20260506110048 59 155 4.3 11.3 0.00 0.00 0.00 83 1007.7
20260506104609 59 151 3.5 16.5 0.00 0.00 0.00 83 1007.8
20260506103044 59 205 2.6 13.0 0.00 0.00 0.00 83 1007.9
20260506101548 59 221 4.3 11.3 0.00 0.00 0.00 83 1007.6
20260506100044 59 198 2.6 9.6 0.00 0.00 0.00 83 1007.6
20260506094539 59 263 4.3 9.6 0.00 0.00 0.00 83 1007.5
20260506093036 59 242 5.2 13.0 0.00 0.00 0.00 82 1007.5
20260506091534 59 186 5.2 13.9 0.00 0.00 0.00 81 1007.4
20260506090042 60 205 6.1 13.9 0.00 0.00 0.00 81 1007.5
20260506084533 60 221 5.2 13.9 0.00 0.00 0.00 80 1007.5
20260506083037 60 202 3.5 13.0 0.00 0.00 0.00 80 1007.6
20260506081525 60 251 8.7 13.0 0.00 0.00 0.00 79 1007.5